Location: Rounton
(54.4000°N, 1.3500°W)
Time: 22:26:54
(UTC+00:00)

Vanguard 1 - Pass Details

Date: 01 December 2021
Orbit: 652 x 3830 km, 34.2° (Epoch: 16 January)

Event Time Altitude Azimuth Distance (km) Brightness Sun altitude
Rises 04:12:42 0° 260° (W) 7,966 - -32.3°
Reaches altitude 10° 04:19:03 10° 253° (WSW) 6,822 - -31.4°
Exits shadow 04:30:03 28° 230° (SW) 4,929 13.1 -29.8°
Maximum altitude 04:36:52 35° 199° (SSW) 4,125 12.9 -28.8°
Drops below altitude 10° 04:48:57 10° 140° (SE) 4,646 14.0 -27.0°
Sets 04:52:18 0° 131° (SE) 5,256 14.5 -26.6°
